Voltar ao catálogo

DELTA 1 DEB

AtivoLEO
NORAD 10206·DEBRIS·🇺🇸 United States

Lançado Jul 14, 1977 de Cape Canaveral Space Force Station

Loading…

Próximas Passagens (próximas 24 horas)

TLE

AtualizadoSource: Space-Track

Época: Sep 14, 2026, 10:36 UTC

1 10206U 77065AK  26257.44212832  .00000745  00000-0  51376-3 0  9993
2 10206  29.2046 172.5715 0524849 177.7727 182.5318 13.42377719326656

Acompanhe DELTA 1 DEB em tempo real com AllMySat

Download on the App Store